Zurück zum Katalog

VANGUARD R/B

AktivUNKNOWN
NORAD 16·ROCKET BODY·🇺🇸 United States

Gestartet Mar 17, 1958 von Cape Canaveral Space Force Station

Loading…

Nächste Überflüge (nächste 24 Stunden)

TLE

AktuellSource: Space-Track

Epoche: Sep 14, 2026, 10:33 UTC

1 00016U 58002A   26257.44009749  .00000188  00000-0  27662-3 0  9994
2 00016  34.2613  47.0346 2016319 137.4312 240.1509 10.49622212698299

Verfolge VANGUARD R/B in Echtzeit mit AllMySat

Download on the App Store